STARLINK-31401, 59417

Orbit data source: Space-Track

STARLINK-31401, 59417 is a payload satellite owned by SpaceX/Seattle (US) in LEO that was launched on Fri, 05 Apr 2024 UTC via an FALCON 9 launch vehicle from the Air Force Eastern Test Range (AFETR). Payload-class satellites include a variety of spacecraft equipped with specific instruments for various scientific and technological missions. These include communications satellites like Starlink; space stations such as the ISS; scientific satellites like the Hubble; Earth observation satellites from companies like Planet Labs, Umbra, and HawkEye 360; GPS; miniature CubeSats for education and research; and military/defense satellites.

Loading next visibility...
Identifier
59417, 2024-064V
Orbit
LEO
Country
Flag of USUS
Related business
Manufacturer
SpaceX/Seattle
Mission
Operational Commercial Communications
Bus & Motor
STARLINK V2M, Unknown motor
Mass
730 kg wet, ~700 kg dry
Launch date (UTC)
2024-04-05 (2 years ago)
Launch vehicle
FALCON 9
Launch site
Air Force Eastern Test Range (AFETR)
Object type
Payload
Rocket body
Debris
Shape & HBR
Box + 2 Pan, 17.7 m
Radar Cross Section
33.884 m², Large (>1 m²)

Expand to show TLE details & history
Last TLE update: 2 days ago

TLE from 2 days ago
0 STARLINK-31401
1 59417U 24064V   26171.13718867  .00000646  00000-0  33001-4 0  9997
2 59417  43.0022 190.6892 0001596 276.6564  83.4106 15.27577330124729
Epoch: 2026-06-20T03:17Z
TLE epoch observation values (Epoch: 2026-06-20T03:17:33.101Z)
Latitude
-0°
Longitude
-127.05485°
Altitude
482.707 km
Speed
7.626 km/s
True Right ascension
12h 42m 45s
True Declination
0° 00' 00"
Sunlit
Object was in daylight at epoch
Visualization orbit readout
Latitude
Unknown
Longitude
Unknown
Altitude
Unknown
Speed
Unknown
Apparent Right ascension
Unknown
Apparent Declination
Unknown
Sunlit
N/A
Visualization observer readout
Local Sidereal Time
21:26:11
Azimuth
Unknown
Elevation
Unknown
Doppler factor
Unknown
Orbital elements
Apogee altitude
486.097 km
Perigee altitude
483.907 km
Semi-major axis
6,863.139 km
Eccentricity
0.00016
Inclination
43.0022°
RAAN
190.6892°
Arg. of periapsis
276.6564°
True anomaly
83.42877°
Mean anomaly
83.4106°
Eccentric anomaly
83.41968°
Mean motion
3.81732 °/min
Orbital period
94.31 mins
BSTAR
0.000033001
Loading maneuver chart data...
Computing Atmospheric mass density...
Loading historical data...
Loading historical data...
Loading historical data...
Loading historical data...
Loading historical data...
Loading historical data...
Loading historical data...

Documentation

Showing up to 5 results
|